Lid_Strength_Index
4 4 3 3 3 2 2 2 3 2 2 2 2 3 5 7 8 10 11 12 13 13 14 14 14 14 14 15 14 14 13 13
4 4 3 3 3 3 3 2 3 3 3 5 6 7 8 9 10 12 12 13 14 15 13 14 14 15 15 14 14 14 14 15
5 5 6 5 4 4 3 4 5 4 7 9 10 11 11 12 12 13 13 13 13 13 13 15 14 14 15 14 15 15 15 15
10 11 11 11 12 12 12 12 12 11 12 12 13 13 13 13 13 13 13 13 14 14 14 15 14 14 14 14 14 14 15 15
12 12 13 12 13 13 13 13 13 13 13 14 14 14 14 14 13 13 13 14 14 15 14 14 14 15 15 15 15 15 15 15
13 13 13 13 13 13 13 12 13 14 14 14 14 14 14 14 14 15 14 14 14 14 15 15 15 15 15 15 15 16 16 15
14 13 13 13 13 13 14 13 13 14 14 14 14 15 16 16 16 16 16 16 16 16 16 16 16 14 14 15 16 16 15 15
14 13 13 14 13 13 13 13 14 15 15 16 16 16 17 17 17 17 17 17 17 17 17 16 16 14 14 14 14 14 14 14
13 13 13 13 12 13 14 14 15 16 16 16 16 17 17 17 18 17 17 17 17 17 17 17 17 14 14 13 13 14 13 12
14 14 15 16 15 16 17 17 17 17 17 17 17 17 17 17 17 17 17 17 17 17 16 16 16 14 13 14 14 14 13 12
18 18 18 18 18 19 19 19 18 18 18 17 16 16 16 16 16 16 16 16 16 16 15 15 15 14 13 13 13 13 13 13
21 22 21 19 18 20 20 20 19 18 18 18 18 17 17 16 16 17 16 16 16 16 15 15 14 14 12 12 13 13 13 13
22 23 22 21 20 21 21 20 19 19 19 19 18 18 17 17 16 16 16 15 15 15 14 13 13 13 12 12 12 12 14 15
21 22 23 23 22 22 21 20 19 19 19 19 19 18 17 17 17 16 16 15 15 15 14 14 13 13 13 13 13 13 14 13
22 23 24 23 23 22 21 19 19 20 19 19 19 18 18 17 17 16 17 17 16 16 17 17 17 16 16 16 16 15 15 14
23 24 24 24 24 24 23 21 20 20 20 19 19 19 19 18 17 18 17 17 18 19 19 19 19 18 16 16 17 16 15 16
24 24 25 24 25 24 23 22 21 21 20 21 20 20 20 20 20 17 17 17 17 17 18 19 18 17 16 15 15 15 16 19
25 25 25 25 25 25 24 23 23 23 22 21 22 22 22 22 22 22 20 19 18 18 18 18 17 16 16 17 17 18 19 22
25 26 26 26 27 26 24 24 24 23 24 23 23 23 23 23 23 23 24 24 23 20 19 19 18 18 18 19 21 24 23 23
26 27 27 27 27 26 26 24 24 24 25 23 23 24 24 23 24 24 24 24 24 23 22 23 20 20 20 21 25 26 25 25